Probability
0 0 0 0 0 0 0 0 0 0 0 0 0 0 0 0 0 0 0 0 0 0 0 0 0 0 0 0 0 0 0 0 0 0 0 0 0 0 0 0 0 0 0 0
0 0 0 0 0 0 0 0 0 0 0 0 0 0 0 0 0 0 0 0 0 0 0 0 0 0 0 0 0 0 0 0 0 0 0 0 0 0 0 0 0 0 0 0
0 0 0 0 0 0 0 0 0 0 0 0 0 0 0 0 0 0 0 0 0 0 0 0 0 0 0 0 0 0 0 0 0 0 0 0 0 0 0 0 0 0 0 0
0 0 0 0 0 0 0 0 0 0 0 0 0 0 0 0 0 0 0 0 0 0 0 0 0 0 0 0 0 0 0 0 0 0 0 0 0 0 0 0 0 0 0 0
0 0 0 0 0 0 0 0 0 0 0 0 0 0 0 0 0 0 0 0 0 0 0 0 0 0 0 0 0 0 0 0 0 0 0 0 0 0 0 0 0 0 0 0
0 0 0 0 0 0 0 0 0 0 0 0 0 0 0 0 0 0 0 0 0 0 0 0 0 0 0 0 0 0 0 0 0 0 0 0 0 0 0 0 0 0 0 0
0 0 0 0 0 0 0 0 0 0 0 0 0 0 0 0 0 0 0 0 0 0 0 0 0 0 0 0 0 0 0 0 0 0 0 0 0 0 0 0 0 0 0 0
0 0 0 0 0 0 0 0 0 0 0 0 0 0 0 0 0 0 0 0 0 0 0 0 0 0 0 0 0 0 0 0 0 0 0 0 0 0 0 0 0 0 0 0
0 0 0 0 0 0 0 0 0 0 0 0 0 0 0 0 0 0 0 0 0 0 0 0 0 0 0 0 0 0 0 0 0 0 0 0 0 0 0 0 0 0 0 0
0 0 0 0 0 0 0 0 0 0 0 0 0 0 0 0 0 0 0 0 0 0 0 0 0 0 0 0 0 0 0 0 0 0 0 0 0 0 0 0 0 0 0 0
0 0 0 0 0 0 0 0 0 0 0 0 0 0 0 0 0 0 0 0 0 0 0 0 0 0 0 0 0 0 0 0 0 0 0 0 0 0 0 0 0 0 0 0
0 0 0 0 0 0 0 0 0 0 0 0 0 0 0 0 0 0 0 0 0 0 0 0 0 0 0 0 0 0 0 0 0 0 0 0 0 0 0 0 0 0 0 0
0 0 0 0 0 0 0 0 0 0 0 0 0 0 0 0 0 0 0 0 0 0 0 0 0 0 0 0 0 0 0 0 0 0 0 0 0 0 0 0 0 0 0 0
0 0 0 0 0 0 0 0 0 0 0 0 0 0 0 0 0 0 0 0 0 0 0 0 0 0 0 0 0 0 0 0 0 0 0 0 0 0 0 0 0 0 0 0
0 0 0 0 0 0 0 0 0 0 0 0 0 0 0 0 0 0 0 0 0 0 0 0 0 0 0 0 0 0 0 0 0 0 0 0 0 0 0 0 0 0 0 0
0 0 0 0 0 0 0 0 0 0 0 0 0 0 0 0 0 0 0 0 0 0 0 0 0 0 0 0 0 0 0 0 0 0 0 0 0 0 0 0 0 0 0 0
0 0 0 0 0 0 0 0 0 0 0 0 0 0 0 0 0 0 0 0 0 0 0 0 0 0 0 0 0 0 0 0 0 0 0 0 0 0 0 0 0 0 0 0
0 0 0 0 0 0 0 0 0 0 0 0 0 0 0 0 0 0 0 0 0 0 0 0 0 0 0 0 0 0 0 0 0 0 0 0 0 0 0 0 0 0 0 0
0 0 0 0 0 0 0 0 0 0 0 0 0 0 0 0 0 0 0 0 0 0 0 0 0 0 0 0 0 0 0 0 0 0 0 0 0 0 0 0 0 0 0 0
0 0 0 0 0 0 0 0 0 0 0 0 0 0 0 0 0 0 0 0 0 0 0 0 0 0 0 0 0 0 0 0 0 0 0 0 0 0 0 0 0 0 0 0
0 0 0 0 0 0 0 0 0 0 0 0 0 0 0 0 0 0 0 0 0 0 0 0 0 0 0 0 0 0 0 0 0 0 0 0 0 0 0 0 0 0 0 0
0 0 0 0 0 0 0 0 0 0 0 0 0 0 0 0 0 0 0 0 0 0 0 0 0 0 0 0 0 0 0 0 0 0 0 0 0 0 0 0 0 0 0 0
0 0 0 0 0 0 0 0 0 0 0 0 0 0 0 0 0 0 0 0 0 0 0 0 0 0 0 0 0 0 0 0 0 0 0 0 0 0 0 0 0 0 0 0
0 0 0 0 0 0 0 0 0 0 0 0 0 0 0 0 0 0 0 0 0 0 0 0 0 0 0 0 0 0 0 0 0 0 0 0 0 0 0 0 0 0 0 0
0 0 0 0 0 0 0 0 0 0 0 0 0 0 0 0 0 0 0 0 0 0 0 0 0 0 0 0 0 0 0 0 0 0 0 0 0 0 0 0 0 0 0 0
0 0 0 0 0 0 0 0 0 0 0 0 0 0 0 0 0 0 0 0 0 0 0 0 0 0 0 0 0 0 0 0 0 0 0 0 0 0 0 0 0 0 0 0
0 0 0 0 0 0 0 0 0 0 0 0 0 0 0 0 0 0 0 0 0 0 0 0 0 0 0 0 0 0 0 0 0 0 0 0 0 0 0 0 0 0 0 0
Height
5579 5576 5574 5572 5570 5568 5566 5564 5562 5563 5562 5562 5560 5558 5558 5557 5556 5557 5557 5557 5557 5557 5558 5558 5558 5559 5559 5560 5561 5562 5563 5563 5564 5565 5566 5567 5568 5570 5571 5573 5574 5575 5575 5577
5569 5567 5563 5561 5560 5558 5556 5555 5552 5551 5551 5552 5549 5547 5546 5546 5545 5545 5546 5545 5545 5546 5546 5546 5547 5547 5547 5548 5548 5549 5550 5551 5551 5552 5553 5554 5555 5557 5558 5559 5560 5561 5561 5562
5558 5556 5553 5551 5552 5549 5546 5545 5543 5541 5542 5540 5538 5537 5536 5535 5534 5534 5534 5534 5534 5534 5534 5534 5534 5535 5535 5535 5536 5537 5537 5538 5539 5539 5540 5541 5542 5543 5544 5545 5546 5547 5547 5548
5547 5545 5542 5545 5541 5539 5536 5535 5533 5531 5530 5529 5527 5526 5525 5524 5524 5524 5523 5523 5523 5523 5523 5522 5522 5522 5522 5522 5523 5524 5524 5525 5526 5526 5527 5528 5529 5530 5530 5531 5532 5532 5533 5534
5537 5533 5532 5533 5531 5528 5525 5525 5523 5521 5520 5518 5516 5515 5515 5514 5513 5512 5512 5512 5511 5511 5510 5510 5510 5510 5510 5509 5510 5510 5511 5512 5512 5513 5514 5515 5516 5516 5516 5517 5518 5518 5519 5520
5527 5523 5521 5524 5521 5517 5515 5514 5514 5510 5509 5507 5506 5505 5506 5503 5502 5501 5501 5500 5500 5500 5499 5498 5498 5497 5497 5497 5497 5497 5498 5498 5499 5500 5500 5501 5502 5502 5503 5503 5504 5505 5506 5506
5517 5513 5512 5513 5510 5507 5506 5505 5502 5500 5498 5497 5495 5495 5494 5492 5491 5490 5490 5489 5489 5488 5487 5486 5485 5485 5485 5484 5484 5484 5485 5485 5486 5486 5487 5488 5488 5489 5489 5490 5491 5492 5492 5493
5508 5504 5505 5502 5499 5497 5495 5493 5491 5489 5487 5486 5485 5483 5482 5481 5479 5479 5478 5478 5477 5477 5476 5475 5474 5473 5473 5472 5472 5472 5472 5473 5473 5473 5474 5474 5475 5475 5476 5476 5477 5478 5479 5479
5498 5498 5494 5491 5489 5487 5484 5482 5480 5479 5477 5476 5474 5473 5472 5470 5469 5468 5467 5466 5466 5465 5464 5463 5462 5461 5461 5460 5460 5460 5460 5460 5460 5461 5461 5462 5462 5462 5463 5463 5464 5465 5465 5466
5487 5486 5483 5480 5477 5476 5473 5471 5469 5468 5466 5465 5464 5462 5461 5459 5458 5457 5456 5455 5454 5453 5452 5451 5450 5449 5449 5448 5448 5448 5448 5448 5449 5449 5449 5449 5449 5450 5450 5450 5451 5451 5452 5452
5476 5475 5472 5470 5466 5464 5462 5460 5459 5457 5455 5454 5453 5451 5450 5448 5447 5446 5445 5444 5443 5442 5441 5440 5439 5438 5437 5437 5437 5437 5437 5437 5437 5437 5437 5437 5437 5437 5438 5438 5438 5438 5438 5438
5466 5463 5460 5458 5455 5453 5451 5449 5448 5446 5444 5443 5441 5440 5438 5437 5436 5435 5434 5432 5431 5430 5430 5429 5428 5427 5427 5426 5426 5425 5425 5425 5425 5425 5425 5425 5425 5425 5425 5425 5425 5424 5424 5424
5454 5451 5448 5446 5443 5441 5439 5438 5436 5434 5433 5431 5430 5428 5427 5426 5424 5423 5422 5421 5420 5419 5418 5417 5417 5416 5416 5415 5415 5414 5414 5413 5413 5413 5412 5412 5412 5412 5412 5412 5412 5412 5411 5411
5442 5439 5436 5434 5432 5430 5428 5426 5424 5423 5421 5420 5418 5417 5416 5414 5413 5412 5411 5410 5409 5408 5407 5407 5406 5405 5405 5404 5403 5403 5402 5401 5401 5400 5400 5400 5400 5400 5400 5400 5400 5399 5399 5398
5430 5427 5424 5422 5420 5417 5416 5414 5412 5411 5410 5408 5407 5406 5404 5403 5402 5401 5401 5400 5399 5397 5397 5396 5395 5395 5394 5393 5392 5391 5390 5390 5389 5388 5388 5387 5387 5387 5387 5386 5386 5386 5386 5385
5418 5415 5413 5410 5408 5406 5404 5402 5401 5399 5398 5397 5396 5395 5393 5392 5391 5391 5390 5389 5388 5387 5386 5385 5384 5384 5383 5382 5381 5380 5379 5378 5377 5376 5375 5375 5374 5374 5373 5373 5373 5373 5372 5372
5408 5405 5402 5399 5397 5395 5393 5391 5389 5388 5387 5386 5385 5383 5383 5382 5381 5380 5379 5378 5377 5376 5375 5374 5373 5372 5372 5371 5370 5369 5368 5366 5365 5364 5363 5362 5361 5361 5360 5360 5359 5359 5359 5358
5398 5395 5392 5389 5387 5384 5382 5380 5378 5377 5376 5374 5373 5372 5372 5371 5370 5369 5368 5367 5366 5365 5364 5363 5362 5361 5360 5359 5358 5357 5356 5355 5353 5352 5351 5350 5349 5348 5347 5347 5346 5346 5346 5345
5388 5385 5382 5379 5376 5374 5372 5370 5368 5367 5365 5364 5363 5362 5361 5360 5359 5358 5357 5356 5355 5354 5352 5351 5350 5349 5348 5347 5346 5345 5344 5343 5342 5340 5339 5338 5337 5336 5335 5334 5334 5333 5333 5332
5378 5375 5372 5369 5367 5364 5362 5360 5358 5357 5355 5354 5352 5351 5349 5348 5347 5346 5345 5344 5343 5342 5341 5340 5338 5337 5336 5335 5334 5333 5332 5331 5330 5329 5328 5327 5325 5324 5323 5322 5321 5321 5320 5320
5369 5366 5363 5360 5358 5355 5353 5351 5349 5347 5345 5343 5342 5340 5338 5337 5336 5335 5334 5333 5331 5330 5329 5328 5327 5325 5324 5323 5322 5321 5320 5319 5318 5317 5316 5315 5314 5313 5312 5311 5310 5309 5309 5308
5360 5357 5354 5351 5348 5345 5343 5341 5339 5337 5335 5333 5331 5329 5328 5326 5325 5324 5322 5321 5320 5318 5317 5316 5315 5313 5312 5311 5310 5309 5308 5307 5306 5305 5304 5303 5302 5301 5301 5300 5299 5298 5297 5296
5351 5347 5344 5342 5339 5336 5333 5331 5329 5327 5325 5323 5321 5319 5317 5315 5313 5312 5311 5309 5307 5306 5305 5303 5302 5301 5300 5299 5298 5297 5296 5295 5294 5294 5293 5292 5291 5290 5289 5288 5287 5286 5286 5285
5341 5338 5335 5332 5329 5326 5324 5321 5319 5316 5314 5312 5310 5308 5306 5304 5302 5300 5298 5296 5295 5293 5292 5291 5289 5288 5288 5287 5286 5285 5284 5284 5283 5282 5281 5280 5279 5278 5278 5277 5276 5275 5274 5273
5331 5328 5325 5322 5319 5316 5313 5311 5308 5306 5304 5301 5299 5296 5294 5292 5290 5287 5285 5284 5282 5281 5279 5278 5277 5276 5275 5275 5274 5274 5273 5272 5271 5271 5270 5269 5268 5267 5266 5265 5264 5263 5262 5261
5322 5318 5315 5312 5309 5306 5303 5300 5298 5295 5292 5290 5287 5284 5282 5279 5277 5275 5273 5271 5270 5269 5267 5266 5265 5265 5264 5263 5263 5262 5261 5261 5260 5259 5259 5258 5257 5256 5255 5254 5253 5252 5251 5250
5312 5309 5305 5302 5299 5295 5292 5289 5287 5284 5281 5278 5276 5273 5270 5268 5266 5264 5262 5260 5259 5258 5256 5255 5255 5254 5253 5252 5252 5251 5251 5250 5249 5249 5248 5247 5246 5245 5244 5243 5243 5242 5241 5240
Wind_Speed
33 34 34 34 34 34 34 35 37 36 36 35 35 35 35 36 36 36 36 36 37 38 38 39 40 41 43 45 45 46 46 47 47 47 47 47 47 48 48 48 49 51 51 51
33 33 34 34 34 35 35 35 36 36 35 34 35 35 36 36 36 36 37 37 38 38 38 39 39 40 41 43 44 44 45 46 47 47 47 47 47 48 48 49 50 50 50 51
33 33 35 35 33 34 35 35 35 36 34 34 35 35 35 36 37 37 37 38 38 38 38 39 39 40 41 42 43 44 45 46 47 47 46 46 47 47 48 49 50 50 50 51
33 34 35 35 33 33 34 35 36 36 35 35 35 35 35 36 36 36 37 38 38 38 38 39 40 40 41 42 43 44 45 45 47 47 47 47 48 47 47 48 49 49 49 50
34 35 35 33 32 32 33 33 34 36 35 36 36 36 35 36 37 37 36 36 37 37 38 38 39 40 41 41 42 44 44 45 46 47 48 48 49 49 48 49 49 50 49 49
35 36 36 33 32 32 33 33 32 33 34 34 35 35 35 36 36 36 36 36 36 36 37 37 38 39 40 41 42 43 44 44 45 46 46 47 47 48 48 48 48 49 48 48
36 37 36 35 33 33 34 33 32 33 33 33 34 35 35 35 36 36 36 36 36 36 37 37 37 38 39 40 41 42 43 43 43 44 44 45 46 46 47 47 48 48 47 47
36 37 36 35 35 35 35 34 33 33 33 33 33 33 34 35 35 36 36 36 36 36 36 37 37 37 38 39 40 41 41 42 43 43 44 44 44 45 46 46 47 48 48 47
36 36 36 36 36 35 35 35 35 35 34 34 33 33 34 34 34 34 35 36 36 36 36 37 37 37 37 38 38 39 40 41 41 42 42 42 43 43 44 44 45 46 46 47
36 36 37 37 36 36 36 36 35 35 35 35 34 34 33 33 33 34 35 35 36 36 36 36 36 36 37 37 37 38 38 39 40 41 41 41 41 42 43 43 44 44 44 45
37 37 37 37 37 37 37 37 36 35 36 36 35 35 34 33 33 34 35 35 35 35 35 36 36 35 36 36 36 36 37 38 39 40 40 40 40 41 41 43 43 44 44 45
37 37 37 37 37 37 37 37 37 36 36 36 36 35 34 34 34 34 34 34 34 35 35 35 35 35 34 34 35 36 36 37 38 39 40 41 41 41 41 42 42 43 43 44
36 37 37 37 37 36 36 36 37 37 36 36 36 36 36 35 34 34 34 34 34 34 34 35 35 34 34 34 35 36 36 36 37 39 39 40 41 42 42 42 42 43 43 43
37 37 37 37 38 37 37 37 37 37 36 36 36 36 35 35 33 33 32 32 33 33 33 34 34 34 34 35 35 35 36 36 37 38 39 40 41 41 41 41 42 42 43 43
37 37 37 37 37 37 37 37 37 36 36 36 35 34 33 33 32 32 32 32 32 33 34 34 34 34 34 34 34 35 35 36 36 38 39 40 41 41 41 41 41 41 42 42
35 35 35 35 35 35 35 35 36 36 36 35 35 34 33 33 32 31 31 32 32 33 33 34 34 34 34 34 34 34 35 35 36 38 39 40 40 40 40 41 40 41 41 41
33 33 33 33 33 33 33 34 34 34 35 35 34 34 34 33 33 32 32 32 33 33 34 34 35 35 35 35 35 35 36 36 36 37 38 38 39 40 40 40 40 40 40 40
31 31 31 31 31 31 31 31 32 32 32 32 32 32 32 33 32 32 33 33 33 33 34 35 35 36 36 36 36 36 36 36 36 36 36 37 37 38 39 39 38 39 39 39
29 29 29 29 29 29 29 29 30 30 31 31 31 32 32 32 32 32 33 33 33 33 34 34 35 35 35 35 35 35 35 35 35 35 35 35 35 35 36 36 36 36 36 37
28 29 28 28 28 28 29 29 29 30 30 30 30 31 31 32 32 32 33 33 33 33 33 34 34 35 35 35 35 35 34 34 34 34 34 34 34 34 34 34 35 35 35 35
29 28 28 28 28 29 29 29 29 29 30 30 31 31 31 31 32 32 32 33 33 34 34 34 34 34 35 35 35 35 34 34 33 33 33 33 33 33 33 33 33 34 34 34
28 28 29 29 29 29 29 29 29 30 30 30 31 31 31 32 32 33 33 33 34 34 34 34 34 34 34 34 34 34 34 33 33 33 33 32 32 32 33 33 33 33 33 33
29 29 29 30 30 29 29 29 30 30 30 31 31 31 32 32 33 33 34 34 34 34 34 35 35 34 34 33 33 33 33 33 33 32 32 32 32 32 32 33 33 33 33 33
30 30 30 30 30 30 30 30 30 31 31 31 32 32 33 33 33 34 34 34 35 35 35 34 34 34 33 33 32 32 33 33 33 32 32 32 32 32 32 32 33 33 33 32
31 31 31 31 31 31 31 32 32 32 32 32 32 33 33 33 33 33 33 34 34 33 33 33 32 32 32 32 32 32 31 32 32 32 31 31 31 32 32 32 32 32 32 32
31 31 31 32 32 32 32 32 32 32 32 33 33 33 33 33 32 32 32 32 31 31 30 30 30 30 30 30 31 31 30 30 30 30 30 30 31 31 31 30 30 29 30 30
31 31 31 32 32 32 32 32 32 32 31 31 31 31 30 30 30 30 30 29 29 28 28 28 29 28 28 28 28 28 29 28 28 28 28 29 29 29 28 28 28 28 28 28
Wind_Direction
288 287 286 285 282 278 276 277 277 279 276 276 275 274 272 270 268 267 265 264 263 262 260 259 259 258 258 257 257 256 256 256 257 257 258 258 258 258 259 260 260 260 260 261
286 285 284 283 281 278 276 276 277 278 277 277 276 274 272 270 268 266 265 265 264 264 263 261 261 260 259 258 257 257 257 256 257 258 258 258 258 259 259 260 261 262 261 261
288 285 283 283 285 281 277 277 278 279 280 278 276 274 271 268 268 268 267 267 266 265 266 265 264 263 262 261 259 258 258 257 258 258 258 259 259 260 261 261 262 262 261 262
291 289 285 288 286 284 281 279 277 278 279 277 276 274 271 269 269 270 269 269 268 267 268 268 267 265 264 262 260 258 258 258 258 258 259 260 261 261 262 263 262 261 262 263
291 290 289 290 288 287 284 281 279 278 277 276 276 274 272 271 271 270 269 269 268 268 269 269 268 266 265 263 261 259 258 258 259 259 260 261 261 262 263 263 263 262 263 263
290 290 290 292 290 288 286 283 281 280 278 277 276 276 275 274 272 270 269 269 269 269 271 271 269 267 266 264 262 260 260 260 260 260 260 260 261 261 262 263 263 263 263 265
288 288 289 290 290 288 286 285 283 280 280 278 277 277 276 276 274 272 271 270 270 271 270 272 271 269 266 265 264 262 261 261 261 261 261 260 260 261 262 263 262 262 264 265
287 288 290 289 288 286 286 284 283 281 280 279 279 279 278 276 275 274 273 272 271 271 271 272 272 270 267 265 264 263 263 263 263 263 262 261 261 262 262 262 262 263 265 265
285 286 288 287 286 284 283 283 282 280 280 281 280 280 279 278 276 274 273 272 271 272 272 272 271 270 267 265 264 264 264 264 263 263 263 262 262 262 263 262 262 263 264 264
284 285 286 286 284 282 282 282 281 280 280 280 281 281 281 279 276 273 272 272 271 271 272 271 271 270 268 266 266 264 264 264 264 264 264 263 262 262 262 263 263 264 265 265
285 285 285 284 283 282 280 279 279 280 279 278 280 280 280 279 276 273 272 271 271 270 270 270 269 268 267 266 265 264 263 264 265 265 265 264 264 264 263 264 265 266 267 266
288 287 285 284 283 281 280 279 278 278 278 278 278 278 278 277 276 273 272 271 271 271 271 271 270 269 268 267 266 266 266 266 266 266 265 265 265 265 265 266 267 267 267 266
288 288 286 284 282 280 279 278 278 279 279 279 279 279 278 277 276 273 272 272 272 271 271 271 271 270 269 269 268 268 268 268 268 267 266 265 265 266 267 267 267 267 267 267
289 288 287 285 282 279 277 278 278 278 278 278 278 278 276 275 274 273 272 272 272 272 272 272 271 270 270 270 269 269 269 270 269 268 266 266 267 267 267 268 268 267 268 268
290 288 287 285 283 280 278 278 278 277 277 276 275 275 274 273 273 272 272 272 273 273 273 272 271 271 271 271 271 271 271 271 270 269 267 267 268 269 269 269 269 269 269 269
291 289 287 285 284 283 281 279 277 276 275 275 274 274 274 273 273 273 272 272 272 273 273 272 271 271 271 272 272 272 272 272 271 271 270 269 269 269 270 270 270 269 269 269
291 290 289 287 286 284 282 279 277 275 275 274 274 275 275 274 274 274 273 273 273 272 272 271 271 271 272 273 273 273 274 274 274 273 272 271 270 270 270 270 269 269 269 269
292 292 291 289 287 285 283 281 279 277 276 276 276 276 275 275 275 275 275 274 274 273 272 272 272 272 273 273 273 273 274 274 274 274 273 273 272 272 271 270 269 269 269 269
294 294 293 291 289 287 284 282 282 281 279 279 278 276 275 274 274 274 274 274 274 273 273 273 273 273 273 273 273 273 273 273 274 274 274 274 274 274 273 271 269 270 270 270
296 296 294 292 290 289 287 285 284 284 283 281 281 278 276 275 275 274 275 275 274 274 274 274 274 273 273 273 272 273 273 273 274 273 274 274 274 274 273 272 271 270 271 271
297 296 295 293 292 291 289 288 286 285 285 284 283 281 278 277 277 276 276 276 276 275 274 274 274 274 272 272 272 273 273 273 273 273 273 273 273 272 272 272 273 273 272 273
297 297 296 295 294 292 290 288 287 286 285 285 284 283 280 278 278 278 278 277 277 276 275 275 274 274 273 272 272 272 272 272 272 273 273 273 273 273 272 272 272 273 273 274
300 299 298 298 296 294 292 290 288 287 287 286 285 284 282 280 280 279 278 278 277 276 275 275 274 274 273 273 271 270 270 271 272 272 272 272 272 272 273 273 273 273 274 274
301 300 299 298 296 294 292 291 289 289 288 287 287 287 285 284 282 280 279 279 278 277 276 275 274 273 271 270 270 270 270 269 270 271 271 271 272 272 273 274 274 274 274 273
301 299 298 297 296 295 293 292 291 291 290 289 289 288 287 286 284 282 281 280 279 278 277 275 274 272 270 269 269 270 270 269 269 269 270 271 272 273 273 274 274 274 274 274
301 300 299 298 296 295 294 293 292 292 291 291 290 289 288 287 286 284 283 281 279 278 276 275 274 273 272 270 269 269 269 270 270 270 270 270 272 273 273 273 273 274 274 273
302 301 300 299 298 297 295 294 293 293 293 293 293 292 290 289 288 286 283 281 280 278 277 276 275 274 273 271 270 269 268 269 269 270 271 271 272 272 272 272 273 274 274 273